STARLINK-34772, 65020

Orbit data source: Space-Track

STARLINK-34772, 65020 is a payload satellite owned by SpaceX/Seattle (US) in LEO that was launched on Wed, 30 Jul 2025 UTC via an FALCON 9 launch vehicle from the Air Force Eastern Test Range (AFETR). Payload-class satellites include a variety of spacecraft equipped with specific instruments for various scientific and technological missions. These include communications satellites like Starlink; space stations such as the ISS; scientific satellites like the Hubble; Earth observation satellites from companies like Planet Labs, Umbra, and HawkEye 360; GPS; miniature CubeSats for education and research; and military/defense satellites.

Loading next visibility...
Identifier
65020, 2025-161F
Orbit
LEO
Country
Flag of USUS
Related business
Manufacturer
SpaceX/Seattle
Mission
Operational spacecraft
Bus & Motor
STARLINK V2MO, Unknown motor
Mass
575 kg wet, ~530 kg dry
Launch date (UTC)
2025-07-30 (1 month ago)
Launch vehicle
FALCON 9
Launch site
Air Force Eastern Test Range (AFETR)
Object type
Payload
Rocket body
Debris
Shape & HBR
Unknown
Radar Cross Section
Large (>1 m²)

Expand to show TLE details & history
Last TLE update: 1 day ago

TLE from 1 day ago
0 STARLINK-34772
1 65020U 25161F   25241.05643759  .00101657  00000-0  18103-2 0  9996
2 65020  53.1614 111.3195 0001575 143.5242 216.5874 15.49337683  5912
Epoch: 2025-08-29T01:21Z
TLE epoch observation values (Epoch: 2025-08-29T01:21:16.207Z)
Latitude
-0.00009°
Longitude
113.49134°
Altitude
420.429 km
Speed
7.66 km/s
True Right ascension
07h 25m 16s
True Declination
0° 00' 00"
Sunlit
Object was in daylight at epoch
Visualization orbit readout
Latitude
Unknown
Longitude
Unknown
Altitude
Unknown
Speed
Unknown
Apparent Right ascension
Unknown
Apparent Declination
Unknown
Sunlit
N/A
Visualization observer readout
Local Sidereal Time
16:55:21
Azimuth
Unknown
Elevation
Unknown
Doppler factor
Unknown
Orbital elements
Apogee altitude
419.991 km
Perigee altitude
417.85 km
Semi-major axis
6,797.058 km
Eccentricity
0.00016
Inclination
53.1614°
RAAN
111.3195°
Arg. of periapsis
143.5242°
True anomaly
216.57664°
Mean anomaly
216.5874°
Eccentric anomaly
216.58202°
Mean motion
3.87313 °/min
Orbital period
92.95 mins
BSTAR
0.0018103
Loading maneuver chart data...
Computing Atmospheric mass density...
Loading historical data...
Loading historical data...
Loading historical data...
Loading historical data...
Loading historical data...
Loading historical data...
Loading historical data...

Documentation

Showing up to 5 results
|